Location: Krakow
(50.0830°N, 19.9170°E)
Time: 19:46:55
(UTC+01:00)

Vanguard 1 Rocket - Pass Details

Date: 16 December 2023
Orbit: 653 x 4219 km, 34.3° (Epoch: 29 February)

Event Time Altitude Azimuth Distance (km) Brightness Sun altitude
Rises 04:38:04 0° 258° (WSW) 8,463 - -26.7°
Reaches altitude 10° 04:44:25 10° 254° (WSW) 7,381 - -25.7°
Exits shadow 04:50:41 21° 248° (WSW) 6,280 11.1 -24.7°
Maximum altitude 05:06:50 47° 191° (S) 3,930 10.5 -22.2°
Drops below altitude 10° 05:20:39 10° 123° (ESE) 4,744 12.1 -20.0°
Sets 05:23:43 0° 117° (ESE) 5,362 12.8 -19.5°
